Location: Pegasus Observatory
(35.6569°N, 82.5850°W)
Time: 22:40:13
(UTC-05:00)

ISS - Visible Passes

Search period start: 27 January 2020 00:00
Search period end: 06 February 2020 00:00
Orbit: 416 x 423 km, 51.6° (Epoch: 28 January)

Date Brightness Start Highest point End Pass type
(mag) Time Alt. Az. Time Alt. Az. Time Alt. Az.
02 Feb -1.1 19:36:13 10° N 19:36:33 11° N 19:36:33 11° N visible
03 Feb -1.4 18:49:32 10° N 18:50:20 11° NNE 18:51:06 10° NE visible
04 Feb -2.1 19:36:58 10° NNW 19:38:49 24° N 19:38:49 24° N visible
05 Feb -2.2 18:49:38 10° NNW 18:52:16 21° NNE 18:53:39 16° ENE visible
05 Feb -0.6 20:26:00 10° WNW 20:26:39 14° WNW 20:26:39 14° WNW visible
